AEROCUBE 12A (43556 NORAD) Tracking and Keplerian Element Data

This shows tracking and keplerian element data for the satellite.

Feedback or suggestion? Click here.




ElementValue
Catalog43556
NameAEROCUBE 12A
Epoch Orbit23477
Epoch Day268.70188852
Epoch Year2022
RAAN53.9421
Inclination51.6363
Eccentricity0.0006264
Argument of Perigee36.2359
Mean Anonmoly323.905
Mean Motion15.42835243
Decay Rate0.00026881
L11 43556U 18046C 22268.70188852 .00026881 00000+0 61005-3 0 9990
L22 43556 51.6363 53.9421 0006264 36.2359 323.9050 15.42835243234771

Live tracking and technical data element details for AEROCUBE 12A (NORAD 43556). AEROCUBE 12A can be tracked NOW for your location showing map with azimuth and elevation plus other details from your city location.

Track the satellite on the map from your city or location and see movement details for azimuth, elevation, latitude, longitude, range, height, and movement on the map or in text.







IsCatalogInMostPopularTable: catalog: 43556, numindb: 601
Update: records affected: 1



GetName: 43556 AEROCUBE 12A

Hit Count: updated at: Thu, 29 Sep 2022 11:15:13 GMT